This is the latest recevied weather packets stored in our database for station/object IU5JAE-13. If no packets are shown the sender has not sent any weather packets the latest 10 day(s).
| Time | Temp. | Humidity | Pressure | Rain* | Wind** | Luminosity | Snow |
|---|---|---|---|---|---|---|---|
| 1777862124 | 11.11° C | 58% | 1018 hPa | 0 mm | - | 0 W/m² | - |
| 1777861521 | 11.11° C | 60% | 1018.1 hPa | 0 mm | - | 0 W/m² | - |
| 1777860919 | 10.56° C | 61% | 1018.1 hPa | 0 mm | - | 0 W/m² | - |
| 1777860316 | 11.11° C | 61% | 1018.1 hPa | 0 mm | - | 0 W/m² | - |
| 1777859734 | 11.11° C | 57% | 1018 hPa | 0 mm | - | 0 W/m² | - |
| 1777859132 | 11.11° C | 57% | 1018.2 hPa | 0 mm | - | 0 W/m² | - |
| 1777858529 | 11.67° C | 55% | 1018.1 hPa | 0 mm | - | 0 W/m² | - |
| 1777857927 | 11.67° C | 54% | 1018.1 hPa | 0 mm | - | 0 W/m² | - |
| 1777857324 | 11.67° C | 53% | 1018.2 hPa | 0 mm | - | 0 W/m² | - |
| 1777856722 | 12.22° C | 53% | 1018.2 hPa | 0 mm | - | 0 W/m² | - |
| 1777856120 | 12.22° C | 52% | 1018.2 hPa | 0 mm | - | 0 W/m² | - |
| 1777855517 | 12.22° C | 52% | 1018.3 hPa | 0 mm | - | 0 W/m² | - |
| 1777854935 | 12.22° C | 52% | 1018.2 hPa | 0 mm | - | 0 W/m² | - |
| 1777854332 | 12.22° C | 53% | 1018.3 hPa | 0 mm | - | 0 W/m² | - |
| 1777853730 | 12.78° C | 52% | 1018.4 hPa | 0 mm | - | 0 W/m² | - |
| 1777853128 | 12.78° C | 52% | 1018.5 hPa | 0 mm | - | 0 W/m² | - |
| 1777852525 | 12.78° C | 51% | 1018.6 hPa | 0 mm | - | 0 W/m² | - |
| 1777851923 | 12.78° C | 51% | 1018.6 hPa | 0 mm | - | 0 W/m² | - |
| 1777851320 | 12.78° C | 52% | 1018.7 hPa | 0 mm | - | 0 W/m² | - |
| 1777850718 | 12.78° C | 52% | 1018.8 hPa | 0 mm | - | 0 W/m² | - |
| 1777850116 | 12.22° C | 52% | 1018.8 hPa | 0 mm | - | 0 W/m² | - |
| 1777849533 | 12.22° C | 53% | 1018.9 hPa | 0 mm | - | 0 W/m² | - |
| 1777848931 | 12.78° C | 51% | 1018.9 hPa | 0 mm | - | 0 W/m² | - |
| 1777848329 | 12.22° C | 52% | 1019 hPa | 0 mm | - | 0 W/m² | - |
| 1777847726 | 12.22° C | 55% | 1019 hPa | 0 mm | - | 0 W/m² | - |
* Rain latest hour (hover to see other rain measurements)
** Current wind speed in m/s (hover to see current wind gust speed)